sat.trackr.live / text

‹ back to catalog

LEMUR-2-PETERG

NORAD 42841 · 2017-042S

PAYLOAD ACTIVE UNKNOWN

§ Identity

Operator
Country
US
Launch date
2017-07-14
Launch site
TYMSC
Launch vehicle
Mass (kg)
RCS (m²)

Purposes: earth_obs

External: N2YO · Heavens-Above · Gunter

§ Orbital elements

Epoch: 2026-09-19T18:31:53.569056Z

Period
93.65 min
Inclination
97.4007°
Eccentricity
0.0003780
Mean motion
15.37622715 rev/d
Perigee alt
450.6 km
Apogee alt
455.7 km
Semi-major
6,831.3 km
B*
4.5793e-4
RAAN
88.2422°
Arg perigee
18.0717°
Mean anomaly
342.0662°
Rev number
50,295

§ Raw data

LEMUR-2-PETERG1 42841U 17042S   26262.77214779  .00016848  00000+0  45793-3 0  99922 42841  97.4007  88.2422 0003780  18.0717 342.0662 15.37622715502959

JSON: /api/v1/satellites/42841 · /tle

For live sub-satellite position, see the globe view (requires WebGL).

§ Visibility from observer

Set your observer location to see the next 7 days of passes ≥ 10°. The values pass through the URL so the page stays shareable.

No JS? Fill the form by hand. The geolocation button needs JavaScript.

§ Radio — SatNOGS DB

ModeDescriptionDownlinkUplink
FM Mode U - Unknown 402.700 MHz

1 transmitter · refreshed weekly from db.satnogs.org